Retour au catalogue

NOAA 16 DEB

ActifSSO
NORAD 41358·DEBRIS·🇺🇸 United States

Lancé Sep 21, 2000 depuis Vandenberg Space Force Base

Loading…

Prochains Passages (prochaines 24 heures)

TLE

FraisSource: Space-Track

Époque: Sep 14, 2026, 09:21 UTC

1 41358U 00055JB  26257.38985549  .00001852  00000-0  75758-3 0  9995
2 41358  98.6161 314.9190 0016534  75.8475 284.4543 14.28353717548925

Suivez NOAA 16 DEB en temps réel avec AllMySat

Download on the App Store